Location: downtown San Diego
(32.7310°N, 117.1990°W)
Time: 18:00:52
(UTC-07:00)

Okean 1 - Pass Details

Date: 19 May 2017
Orbit: 540 x 559 km, 82.5° (Epoch: 26 May)

Event Time Altitude Azimuth Distance (km) Brightness Sun altitude
Exits shadow 20:41:28 - 166° (SSE) 1,906 5.6 -11.5°
Reaches altitude 10° 20:41:45 10° 165° (SSE) 1,798 5.5 -11.5°
Maximum altitude 20:45:30 43° 93° (E) 762 3.6 -12.2°
Drops below altitude 10° 20:49:16 10° 21° (NNE) 1,805 6.1 -12.8°
Sets 20:51:29 0° 15° (NNE) 2,700 7.1 -13.2°
